Location: Newark
(35.5300°N, 14.3000°E)
Time: 09:50:23
(UTC+00:00)

S-56A Canister/Altair - Pass Details

Date: 21 November 2019
Orbit: 633 x 2500 km, 38.9° (Epoch: 08 December)

Event Time Altitude Azimuth Distance (km) Brightness Sun altitude
Rises 18:26:16 0° 281° (W) 4,669 12.6 -31.0°
Reaches altitude 10° 18:29:54 10° 283° (WNW) 3,379 11.6 -31.7°
Enters shadow 18:36:52 61° 317° (NW) 1,137 8.3 -33.1°
